Regional Weather Roundup
Issued by NWS

Home | Current Version | Previous Version | Text Only | Print | Product List | Glossary Off
Versions: 1 2 3 4 5 6 7 8 9 10 11 12 13 14 15 16 17 18 19 20 21 22 23 24 25 26 27 28 29 30 31 32 33 34 35 36 37 38 39 40 41 42 43 44 45 46 47 48 49 50

792
ASUS43 KMPX 261301
RWRMN
WEATHER ROUNDUP FOR MINNESOTA
NATIONAL WEATHER SERVICE TWIN CITIES/CHANHASSEN MN
700 AM CST SUN FEB 26 2017


NOTE: "FAIR" INDICATES FEW OR NO CLOUDS BELOW 12,000 FEET WITH NO
SIGNIFICANT WEATHER AND/OR OBSTRUCTIONS TO VISIBILITY. N/A MEANS
CURRENT SKY AND/OR WEATHER CONDITIONS ARE NOT AVAILABLE.

MNZ060>063-068>070-261400-
   Twin Cities Metro

CITY           SKY/WX    TMP DP  RH WIND       PRES   REMARKS
TWIN CITIES    PTCLDY    24  17  74 SW5       29.74S WCI  18
ST PAUL        PTCLDY    23  18  81 CALM      29.75S
CRYSTAL        CLEAR     21  15  78 S6        29.72S WCI  13
BLAINE         MOCLDY    25  19  80 SW8       29.72S WCI  16
LAKEVILLE      CLEAR     19  18  93 CALM      29.74S
EDEN PRAIRIE   CLEAR     22  16  78 SW9       29.72F WCI  12
SOUTH ST PAUL  CLEAR     24  18  78 CALM      29.74F
LAKE ELMO      FAIR      25  19  80 SW6       29.73F WCI  18
$$
MNZ001>005-007-008-013>017-022>024-027-028-261400-
   Northwest Minnesota

CITY           SKY/WX    TMP DP  RH WIND       PRES   REMARKS
BEMIDJI        LGT SNOW  11   7  85 N9        29.68S WCI  -2
HALLOCK        CLEAR      3   0  85 NW3       29.77S
ROSEAU         CLEAR      5   0  78 W5        29.74S WCI  -4
WARROAD        CLEAR      3  -2  78 W5        29.73S WCI  -6
THIEF RVR FALL   N/A    N/A N/A N/A MISG        N/A
CROOKSTON      CLEAR      9   3  78 N8        29.79R WCI  -4
FOSSTON        MOCLDY     7   3  85 N7        29.73R WCI  -5
DETROIT LAKES  FLURRIES  16  12  86 N9G18     29.71R WCI   4
MOORHEAD       MIX PCPN  12   9  85 N12       29.78R WCI  -2
PARK RAPIDS    LGT SNOW  18  11  74 N16       29.65R WCI   3
MAHNOMEN       FLURRIES  11   8  87 N9        29.72R WCI  -2
$$
MNZ006-009>011-018-025>026-261400-
   North Central Minnesota

CITY           SKY/WX    TMP DP  RH WIND       PRES   REMARKS
BAUDETTE       CLEAR      4  -3  73 NW7       29.70S WCI  -8
FLAG ISLAND    CLEAR      1  -2  85 NW7       29.72R WCI -11
INTL FALLS     LGT SNOW   9   4  80 NW9       29.67S WCI  -4
WASKISH        MOCLDY     9   3  78 NW3       29.71S
BIG FORK       LGT SNOW  12   9  85 NW6       29.66S WCI   3
LONGVILLE      LGT SNOW  18  16  93 NW3       29.65R
GRAND RAPIDS   LGT SNOW  17  14  88 N12       29.65R VSB 1   WCI   4
CRANE LAKE     LGT SNOW  10   9  92 NW5       29.68R WCI   2
ORR            LGT SNOW  10   7  85 CALM      29.63R
COOK           LGT SNOW  12  10  92 NW3       29.65R
WALKER         LGT SNOW  13   8  82 N9        29.68R WCI   1
$$
MNZ012-019>021-037-261400-
   Northeast Minnesota

CITY           SKY/WX    TMP DP  RH WIND       PRES   REMARKS
DULUTH         FLURRIES  24  22  91 SW10      29.61S WCI  14
ELY            LGT SNOW  14  12  92 CALM      29.61S
HIBBING        LGT SNOW  17  14  88 N8        29.62S FOG     WCI   7
EVELETH        LGT SNOW  20  14  77 N5        29.63R WCI  13
DULUTH HARBOR  CLOUDY    27  23  86 CALM      29.67S
TWO HARBORS    FLURRIES  27  21  80 CALM      29.61S
SILVER BAY     LGT SNOW  21  19  93 CALM      29.61S
GRAND MARAIS     N/A     23  15  71 CALM      29.64S
G MARAIS ARPRT CLEAR     10   7  85 NW3       29.57S
$$
MNZ029>031-032-039>041-046>048-054>057-064-261400-
   West Central Minnesota

CITY           SKY/WX    TMP DP  RH WIND       PRES   REMARKS
FERGUS FALLS   CLOUDY    18  18 100 N6        29.75R WCI   9
WHEATON        CLOUDY    18  16  93 NW16G22   29.76R WCI   3
MORRIS         MOCLDY    27  25  93 W14       29.70R WCI  15
ALEXANDRIA     CLOUDY    26  23  88 W14       29.68R WCI  14
ELBOW LAKE     CLOUDY    22  21  98 W8        29.70R WCI  12
WADENA         MIX PCPN  19  19 100 W3        29.65S
GLENWOOD       MOCLDY    27  25  93 W13       29.69R WCI  16
APPLETON       MOCLDY    27  25  93 W12       29.73R WCI  16
BENSON         MOCLDY    25  21  86 NW6       29.73R WCI  18
ORTONVILLE     MOCLDY    27  23  86 NW13G18   29.73R WCI  16
MADISON        CLEAR     28  25  86 W8        29.73R WCI  20
WILLMAR        MOCLDY    25  23  93 SW7       29.72R WCI  17
$$
MNZ033>034-036-042>043-049>051-058-059-261400-
   Central Minnesota

CITY           SKY/WX    TMP DP  RH WIND       PRES   REMARKS
ST CLOUD       MOCLDY    25  22  88 SW8       29.69S WCI  16
SAUK CENTRE    CLOUDY    26  24  90 W9        29.68R WCI  17
PAYNESVILLE    CLOUDY    26  26 100 SW7       29.70S WCI  18
AITKIN         LGT SNOW  27  21  80 CALM      29.63S
PINE RIVER     LGT SNOW  21  21 100 CALM      29.68S
BRAINERD       LGT SNOW  23  22  96 W7        29.65S FOG     WCI  15
STAPLES        FLURRIES  19  18  93 CALM      29.66R
LONG PRAIRIE   CLOUDY    27  23  86 SW7       29.67R WCI  19
LITTLE FALLS   CLOUDY    28  23  80 W8        29.67S WCI  20
LITCHFIELD     CLOUDY    27  23  86 SW5       29.71S WCI  21
BUFFALO        CLOUDY    23  20  89 S3        29.73R
MAPLE LAKE     MOCLDY    23  22  97 CALM      29.72S
HUTCHINSON     MOCLDY    24  22  92 SW5       29.73R WCI  18
$$
MNZ037-044-045-052-053-261400-
   East Central Minnesota

CITY           SKY/WX    TMP DP  RH WIND       PRES   REMARKS
PRINCETON      CLOUDY    25  21  86 S6        29.69R WCI  18
MORA           CLOUDY    27  23  86 SW6       29.69S WCI  20
CAMBRIDGE      CLOUDY    27  18  69 S6        29.69R WCI  20
RUSH CITY      CLOUDY    25  19  80 S6        29.69F WCI  18
MOOSE LAKE     CLOUDY    27  21  80 SW7       29.64S WCI  19
HINCKLEY       CLOUDY    27  23  86 SW7       29.67F WCI  19
CLOQUET        CLOUDY    25  21  86 SW6       29.62F WCI  18
MCGREGOR       CLOUDY    27  25  93 CALM      29.64S
$$
MNZ071>073-080-081-089-090-097-098-261400-
   Southwest Minnesota

CITY           SKY/WX    TMP DP  RH WIND       PRES   REMARKS
MONTEVIDEO     PTCLDY    25  21  86 W3        29.74R
GRANITE FALLS  PTCLDY    25  22  87 S9        29.74R WCI  16
CANBY          CLEAR     27  23  87 W15       29.74R WCI  15
MARSHALL       PTCLDY    25  20  81 NW6       29.74R WCI  18
REDWOOD FALLS  CLOUDY    25  20  81 W7        29.73S WCI  17
OLIVIA         MOCLDY    27  23  86 SW7       29.72S WCI  19
PIPESTONE      CLOUDY    23  18  80 W7        29.74S WCI  15
WINDOM         CLEAR     19  16  86 SW7       29.74R WCI  10
WORTHINGTON    CLEAR     20  16  84 SW15      29.75R WCI   6
JACKSON        CLEAR     19  16  86 SW9       29.76R WCI   9
TRACY          PTCLDY    26  22  85 W10G16    29.73R WCI  17
SLAYTON        PTCLDY    22  19  86 SW13      29.73S WCI  10
$$
MNZ065>067-074>077-082>085-091>093-261400-
   South Central Minnesota

CITY           SKY/WX    TMP DP  RH WIND       PRES   REMARKS
MANKATO          N/A     18  15  88 SW6       29.76S WCI  10
NEW ULM        MOCLDY    21  18  86 SW3       29.74S
ST JAMES       MOCLDY    19  16  86 CALM      29.75F
FAIRMONT       CLEAR     18  15  88 SW13      29.76S WCI   5
GLENCOE        MOCLDY    23  22  96 SW5       29.73S WCI  17
FARIBAULT      PTCLDY    18  14  86 S6        29.76R WCI   9
OWATONNA       CLEAR     16  10  79 S9        29.75S WCI   4
WASECA         CLEAR     14  12  92 S6        29.77S WCI   5
ALBERT LEA     CLEAR     19  16  86 SW8       29.76S WCI   9
$$
MNZ078>079-086>088-094>096-261400-
   Southeast Minnesota

CITY           SKY/WX    TMP DP  RH WIND       PRES   REMARKS
ROCHESTER      CLEAR     20  15  81 SW15      29.75S WCI   6
RED WING       CLEAR     21  16  79 CALM      29.76S
STANTON        CLEAR     19  14  82 SW7       29.74S WCI   9
WINONA         MOCLDY    30  21  69 SW3       29.79S
AUSTIN         CLEAR     18  12  79 SW6       29.77S WCI   9
PRESTON        CLEAR     23  17  77 SW10      29.77R WCI  12
$$
ABBREVIATIONS USED IN REMARKS
   TC - TEMPERATURES IN CELSIUS
  WCI - WIND CHILL INDEX
   HX - HEAT INDEX
  VSB - VISIBILITY
$$




USA.gov is the U.S. government's official web portal to all federal, state and local government web resources and services.